KLM49E EHAM-LFLL

Flight info

Callsign KLM49E
Flight time 1h 19m
Altitude 27000
Route WOODY N872 AMMOF/N0458F290 N872 NIK M624 DIK N852 SUTAL DCT GTQ DCT POGOL DCT LASAT DCT MOROK Z24 BOLGI T14 MILPA
Aircraft E190/M-SDE2E3FGIJ1RWY/LB1

Departure

Time 2026-05-07 12:48
Airport Amsterdam Airport Schiphol (EHAM)

Arrival

Time 2026-05-07 14:07
Airport Lyon Saint-Exupéry Airport (LFLL)
Time Latitude Longitude Altitude Speed Heading
2026-05-07 12:12 52.30281 4.76270 -1 ft 0 kts 58°
2026-05-07 12:38 52.30281 4.76271 -1 ft 0 kts 58°
2026-05-07 12:38 52.30278 4.76261 -1 ft 2 kts 58°
2026-05-07 12:38 52.30270 4.76240 -1 ft 2 kts 62°
2026-05-07 12:39 52.30266 4.76217 -1 ft 2 kts 95°
2026-05-07 12:39 52.30271 4.76194 -1 ft 2 kts 124°
2026-05-07 12:39 52.30280 4.76179 -1 ft 1 kts 148°
2026-05-07 12:39 52.30281 4.76178 -1 ft 0 kts 148°
2026-05-07 12:42 52.30251 4.76208 -1 ft 8 kts 148°
2026-05-07 12:42 52.30180 4.76217 -1 ft 14 kts 229°
2026-05-07 12:42 52.30112 4.76043 -1 ft 21 kts 238°
2026-05-07 12:43 52.30019 4.75800 -1 ft 28 kts 239°
2026-05-07 12:43 52.29911 4.75522 -1 ft 29 kts 237°
2026-05-07 12:43 52.29840 4.75319 -1 ft 14 kts 252°
2026-05-07 12:43 52.29859 4.75163 -1 ft 14 kts 312°
2026-05-07 12:44 52.29926 4.75037 -1 ft 14 kts 312°
2026-05-07 12:44 52.29996 4.74910 -1 ft 15 kts 311°
2026-05-07 12:44 52.30069 4.74774 -1 ft 16 kts 311°
2026-05-07 12:44 52.30149 4.74623 -1 ft 18 kts 311°
2026-05-07 12:45 52.30239 4.74455 -1 ft 20 kts 311°
2026-05-07 12:45 52.30329 4.74282 -1 ft 20 kts 302°
2026-05-07 12:45 52.30333 4.74090 -1 ft 10 kts 244°
2026-05-07 12:45 52.30289 4.74003 -1 ft 9 kts 220°
2026-05-07 12:46 52.30236 4.73934 -1 ft 9 kts 218°
2026-05-07 12:46 52.30193 4.73850 -1 ft 10 kts 255°
2026-05-07 12:46 52.30212 4.73748 -1 ft 10 kts 323°
2026-05-07 12:46 52.30254 4.73737 -1 ft 0 kts
2026-05-07 12:47 52.30271 4.73739 -1 ft 11 kts
2026-05-07 12:47 52.30557 4.73766 -1 ft 76 kts
2026-05-07 12:47 52.31301 4.73835 -1 ft 137 kts
2026-05-07 12:47 52.32399 4.73943 118 ft 170 kts
2026-05-07 12:48 52.33527 4.74048 933 ft 160 kts
2026-05-07 12:48 52.34523 4.74623 1730 ft 154 kts 26°
2026-05-07 12:48 52.35571 4.75366 2141 ft 180 kts 24°
2026-05-07 12:48 52.36782 4.76305 2576 ft 204 kts 38°
2026-05-07 12:49 52.37521 4.78373 3096 ft 227 kts 83°
2026-05-07 12:49 52.37300 4.80968 3921 ft 238 kts 104°
2026-05-07 12:49 52.36686 4.83387 4916 ft 240 kts 130°
2026-05-07 12:49 52.35298 4.84808 5781 ft 248 kts 167°
2026-05-07 12:50 52.33506 4.84955 6422 ft 264 kts 180°
2026-05-07 12:50 52.31642 4.84913 7142 ft 275 kts 180°
2026-05-07 12:50 52.29713 4.84871 8003 ft 280 kts 180°
2026-05-07 12:50 52.27775 4.84830 8911 ft 282 kts 181°
2026-05-07 12:51 52.25825 4.84789 9793 ft 284 kts 181°
2026-05-07 12:51 52.23851 4.84748 10607 ft 287 kts 181°
2026-05-07 12:51 52.21836 4.84706 11254 ft 297 kts 181°
2026-05-07 12:51 52.19736 4.84663 11821 ft 309 kts 181°
2026-05-07 12:52 52.17573 4.84618 12406 ft 320 kts 181°
2026-05-07 12:52 52.15328 4.84571 13055 ft 328 kts 181°
2026-05-07 12:52 52.13042 4.84524 13805 ft 332 kts 181°
2026-05-07 12:52 52.10714 4.84476 14591 ft 335 kts 181°
2026-05-07 12:53 52.08392 4.84429 15388 ft 337 kts 181°
2026-05-07 12:53 52.06051 4.84380 16171 ft 340 kts 181°
2026-05-07 12:53 52.03713 4.84332 16894 ft 342 kts 182°
2026-05-07 12:53 52.01379 4.83669 17555 ft 344 kts 203°
2026-05-07 12:54 51.99197 4.82034 18267 ft 347 kts 206°
2026-05-07 12:54 51.97026 4.80342 18966 ft 351 kts 206°
2026-05-07 12:54 51.94812 4.78611 19679 ft 355 kts 206°
2026-05-07 12:54 51.92586 4.76869 20392 ft 358 kts 206°
2026-05-07 12:55 51.90357 4.75125 21126 ft 360 kts 206°
2026-05-07 12:55 51.88086 4.73350 21833 ft 363 kts 207°
2026-05-07 12:55 51.85799 4.71564 22510 ft 367 kts 206°
2026-05-07 12:55 51.83499 4.69770 23149 ft 370 kts 206°
2026-05-07 12:56 51.81165 4.67951 23786 ft 374 kts 206°
2026-05-07 12:56 51.78830 4.66135 24424 ft 377 kts 206°
2026-05-07 12:56 51.76456 4.64289 25062 ft 380 kts 206°
2026-05-07 12:56 51.74097 4.62458 25673 ft 384 kts 206°
2026-05-07 12:57 51.71690 4.60591 26285 ft 386 kts 207°
2026-05-07 12:57 51.69271 4.58718 26874 ft 388 kts 207°
2026-05-07 12:57 51.66823 4.56823 27019 ft 394 kts 207°
2026-05-07 12:57 51.64338 4.54903 27055 ft 410 kts 207°
2026-05-07 12:58 51.61729 4.52889 27054 ft 419 kts 207°
2026-05-07 12:58 51.59104 4.50866 27043 ft 420 kts 207°
2026-05-07 12:58 51.56480 4.48847 27044 ft 419 kts 207°
2026-05-07 12:58 51.53859 4.46832 27045 ft 418 kts 207°
2026-05-07 12:59 51.51217 4.44803 27047 ft 418 kts 207°
2026-05-07 12:59 51.48618 4.42810 27047 ft 418 kts 207°
2026-05-07 12:59 51.45989 4.40797 27047 ft 417 kts 207°
2026-05-07 12:59 51.43392 4.38811 27051 ft 418 kts 207°
2026-05-07 13:00 51.40765 4.36804 27049 ft 418 kts 207°
2026-05-07 13:00 51.38117 4.34788 27052 ft 418 kts 206°
2026-05-07 13:00 51.35491 4.32791 27052 ft 419 kts 206°
2026-05-07 13:00 51.32894 4.30819 27053 ft 418 kts 206°
2026-05-07 13:01 51.30260 4.28818 27052 ft 418 kts 206°
2026-05-07 13:01 51.27655 4.26839 27054 ft 418 kts 206°
2026-05-07 13:01 51.25017 4.24838 27052 ft 418 kts 206°
2026-05-07 13:01 51.22407 4.22890 27057 ft 411 kts 203°
2026-05-07 13:02 51.19738 4.21325 27119 ft 407 kts 197°
2026-05-07 13:02 51.16951 4.20454 27434 ft 409 kts 186°
2026-05-07 13:02 51.14148 4.20411 27726 ft 412 kts 176°
2026-05-07 13:02 51.11312 4.21202 28026 ft 416 kts 166°
2026-05-07 13:03 51.08611 4.22798 28324 ft 419 kts 155°
2026-05-07 13:03 51.06105 4.25151 28621 ft 423 kts 146°
2026-05-07 13:03 51.03834 4.28166 28921 ft 427 kts 136°
2026-05-07 13:03 51.01903 4.31794 29049 ft 441 kts 126°
2026-05-07 13:04 50.98336 4.39771 29056 ft 445 kts 132°
2026-05-07 13:04 50.94200 4.47025 29051 ft 444 kts 134°
2026-05-07 13:05 50.90007 4.54175 29050 ft 443 kts 135°
2026-05-07 13:05 50.85642 4.61037 29049 ft 443 kts 136°
2026-05-07 13:06 50.81264 4.67912 29061 ft 442 kts 136°
2026-05-07 13:06 50.76933 4.74698 29060 ft 442 kts 136°
2026-05-07 13:07 50.72557 4.81532 29058 ft 443 kts 136°
2026-05-07 13:07 50.68153 4.88392 29057 ft 444 kts 136°
2026-05-07 13:08 50.63784 4.95184 29054 ft 444 kts 136°
2026-05-07 13:08 50.59403 5.01982 29054 ft 444 kts 136°
2026-05-07 13:09 50.55018 5.08766 29053 ft 444 kts 136°
2026-05-07 13:09 50.50622 5.15548 29048 ft 444 kts 136°
2026-05-07 13:10 50.46202 5.22348 29048 ft 445 kts 136°
2026-05-07 13:10 50.41799 5.29104 29044 ft 445 kts 136°
2026-05-07 13:11 50.37403 5.35830 29042 ft 444 kts 136°
2026-05-07 13:11 50.32992 5.42561 29041 ft 444 kts 136°
2026-05-07 13:12 50.28545 5.49328 29040 ft 445 kts 136°
2026-05-07 13:12 50.24118 5.56046 29031 ft 445 kts 136°
2026-05-07 13:13 50.19680 5.62763 29027 ft 445 kts 136°
2026-05-07 13:13 50.15257 5.69440 29023 ft 445 kts 137°
2026-05-07 13:14 50.10829 5.76104 29023 ft 444 kts 137°
2026-05-07 13:14 50.06387 5.82774 29024 ft 444 kts 136°
2026-05-07 13:15 50.01929 5.89452 29023 ft 444 kts 136°
2026-05-07 13:15 49.97497 5.96076 29027 ft 445 kts 136°
2026-05-07 13:16 49.93045 6.02705 29030 ft 445 kts 136°
2026-05-07 13:16 49.88604 6.09302 29029 ft 445 kts 136°
2026-05-07 13:17 49.83556 6.14748 29033 ft 444 kts 155°
2026-05-07 13:17 49.77921 6.18558 29038 ft 444 kts 157°
2026-05-07 13:18 49.72281 6.22378 29040 ft 444 kts 157°
2026-05-07 13:18 49.66613 6.26211 29040 ft 444 kts 157°
2026-05-07 13:19 49.60936 6.29968 29044 ft 445 kts 158°
2026-05-07 13:19 49.55260 6.33630 29039 ft 445 kts 158°
2026-05-07 13:20 49.49540 6.37315 29042 ft 445 kts 158°
2026-05-07 13:20 49.43879 6.41058 29038 ft 445 kts 156°
2026-05-07 13:21 49.38237 6.44908 29034 ft 445 kts 156°
2026-05-07 13:21 49.32597 6.48742 29029 ft 446 kts 156°
2026-05-07 13:22 49.26938 6.52579 29028 ft 446 kts 156°
2026-05-07 13:22 49.21260 6.56419 29033 ft 445 kts 156°
2026-05-07 13:23 49.15592 6.60242 29032 ft 445 kts 157°
2026-05-07 13:23 49.10255 6.63833 29027 ft 445 kts 157°
2026-05-07 13:24 49.04617 6.67618 29031 ft 445 kts 158°
2026-05-07 13:24 48.98812 6.70870 29026 ft 443 kts 170°
2026-05-07 13:25 48.92732 6.71420 29033 ft 440 kts 184°
2026-05-07 13:25 48.86700 6.71155 29027 ft 440 kts 183°
2026-05-07 13:26 48.80558 6.70913 29026 ft 440 kts 183°
2026-05-07 13:26 48.74449 6.70674 29026 ft 440 kts 183°
2026-05-07 13:27 48.68352 6.70437 29019 ft 440 kts 183°
2026-05-07 13:27 48.62244 6.70199 29020 ft 440 kts 183°
2026-05-07 13:28 48.56125 6.69962 29018 ft 440 kts 183°
2026-05-07 13:28 48.50007 6.69726 29018 ft 440 kts 183°
2026-05-07 13:29 48.43921 6.69491 29016 ft 440 kts 183°
2026-05-07 13:29 48.37795 6.69255 29019 ft 440 kts 183°
2026-05-07 13:30 48.31702 6.69020 29012 ft 439 kts 184°
2026-05-07 13:30 48.25599 6.68786 29014 ft 439 kts 184°
2026-05-07 13:31 48.19510 6.68552 29010 ft 440 kts 184°
2026-05-07 13:31 48.13406 6.68319 29005 ft 440 kts 184°
2026-05-07 13:32 48.07286 6.68086 29002 ft 440 kts 184°
2026-05-07 13:32 48.01223 6.67856 28996 ft 439 kts 184°
2026-05-07 13:33 47.95124 6.67625 28999 ft 440 kts 184°
2026-05-07 13:33 47.89011 6.67394 29010 ft 440 kts 184°
2026-05-07 13:34 47.79828 6.67049 29010 ft 440 kts 184°
2026-05-07 13:35 47.73720 6.66819 29010 ft 440 kts 184°
2026-05-07 13:35 47.67594 6.66590 29012 ft 440 kts 184°
2026-05-07 13:36 47.61491 6.66362 29013 ft 439 kts 184°
2026-05-07 13:36 47.55398 6.66134 29022 ft 439 kts 184°
2026-05-07 13:37 47.49271 6.65907 29020 ft 439 kts 184°
2026-05-07 13:37 47.43187 6.65681 29019 ft 440 kts 184°
2026-05-07 13:38 47.37080 6.65455 29021 ft 440 kts 184°
2026-05-07 13:38 47.30971 6.65229 29024 ft 439 kts 184°
2026-05-07 13:39 47.24905 6.64655 29024 ft 435 kts 194°
2026-05-07 13:39 47.19291 6.61615 29023 ft 429 kts 212°
2026-05-07 13:40 47.14641 6.56221 29028 ft 425 kts 226°
2026-05-07 13:40 47.10305 6.50380 29020 ft 426 kts 224°
2026-05-07 13:41 47.05890 6.44580 29025 ft 426 kts 224°
2026-05-07 13:41 47.01491 6.38824 29012 ft 425 kts 224°
2026-05-07 13:42 46.97135 6.33141 29001 ft 412 kts 224°
2026-05-07 13:42 46.92938 6.27674 28947 ft 385 kts 224°
2026-05-07 13:42 46.90993 6.25142 28809 ft 378 kts 224°
2026-05-07 13:43 46.88952 6.22485 28545 ft 402 kts 224°
2026-05-07 13:43 46.86850 6.19756 28097 ft 408 kts 224°
2026-05-07 13:43 46.84732 6.17009 27634 ft 405 kts 224°
2026-05-07 13:43 46.82637 6.14295 27185 ft 400 kts 224°
2026-05-07 13:44 46.80572 6.11623 26747 ft 396 kts 223°
2026-05-07 13:44 46.78521 6.08970 26310 ft 394 kts 223°
2026-05-07 13:44 46.76482 6.06337 25880 ft 391 kts 223°
2026-05-07 13:44 46.74456 6.03724 25447 ft 389 kts 223°
2026-05-07 13:45 46.72448 6.01135 25010 ft 386 kts 223°
2026-05-07 13:45 46.70444 5.98555 24586 ft 385 kts 223°
2026-05-07 13:45 46.68444 5.95986 24162 ft 382 kts 222°
2026-05-07 13:45 46.66163 5.94074 23749 ft 384 kts 199°
2026-05-07 13:46 46.63529 5.93359 23309 ft 386 kts 189°
2026-05-07 13:46 46.60867 5.92897 22861 ft 384 kts 189°
2026-05-07 13:46 46.58247 5.92464 22441 ft 382 kts 188°
2026-05-07 13:46 46.55610 5.92035 22015 ft 380 kts 188°
2026-05-07 13:47 46.53011 5.91616 21599 ft 378 kts 188°
2026-05-07 13:47 46.50411 5.91198 21183 ft 375 kts 188°
2026-05-07 13:47 46.47806 5.90780 20765 ft 373 kts 188°
2026-05-07 13:47 46.45255 5.90371 20355 ft 371 kts 188°
2026-05-07 13:48 46.42688 5.89959 19949 ft 370 kts 188°
2026-05-07 13:48 46.40163 5.89555 19536 ft 368 kts 188°
2026-05-07 13:48 46.37612 5.89147 19133 ft 366 kts 188°
2026-05-07 13:48 46.35110 5.88748 18730 ft 365 kts 188°
2026-05-07 13:49 46.32634 5.88116 18310 ft 361 kts 203°
2026-05-07 13:49 46.30582 5.86156 18052 ft 353 kts 229°
2026-05-07 13:49 46.29304 5.83167 18061 ft 350 kts 248°
2026-05-07 13:49 46.28409 5.79908 18090 ft 352 kts 250°
2026-05-07 13:50 46.27577 5.76606 18085 ft 352 kts 251°
2026-05-07 13:50 46.26770 5.73292 18093 ft 351 kts 251°
2026-05-07 13:50 46.25961 5.69937 18085 ft 351 kts 251°
2026-05-07 13:50 46.25169 5.66633 18085 ft 352 kts 251°
2026-05-07 13:51 46.24366 5.63287 18079 ft 353 kts 251°
2026-05-07 13:51 46.23566 5.59959 18078 ft 353 kts 251°
2026-05-07 13:51 46.22757 5.56589 17983 ft 352 kts 251°
2026-05-07 13:51 46.21957 5.53268 17831 ft 354 kts 251°
2026-05-07 13:52 46.21148 5.49915 17466 ft 351 kts 251°
2026-05-07 13:52 46.20351 5.46612 17081 ft 348 kts 251°
2026-05-07 13:52 46.19555 5.43322 16700 ft 346 kts 251°
2026-05-07 13:52 46.18722 5.40120 16313 ft 344 kts 243°
2026-05-07 13:53 46.17164 5.37528 15949 ft 345 kts 217°
2026-05-07 13:53 46.15066 5.35891 15543 ft 344 kts 207°
2026-05-07 13:53 46.12916 5.34422 15145 ft 342 kts 206°
2026-05-07 13:53 46.10728 5.33152 14758 ft 341 kts 192°
2026-05-07 13:54 46.08378 5.32909 14419 ft 340 kts 182°
2026-05-07 13:54 46.05994 5.32856 14024 ft 337 kts 182°
2026-05-07 13:54 46.03655 5.32815 13650 ft 334 kts 182°
2026-05-07 13:54 46.01349 5.32777 13283 ft 332 kts 181°
2026-05-07 13:55 45.99065 5.32742 12921 ft 330 kts 181°
2026-05-07 13:55 45.96761 5.32707 12555 ft 329 kts 181°
2026-05-07 13:55 45.94488 5.32673 12187 ft 327 kts 181°
2026-05-07 13:55 45.92223 5.32639 11833 ft 325 kts 181°
2026-05-07 13:56 45.89982 5.32606 11465 ft 319 kts 181°
2026-05-07 13:56 45.87767 5.32573 11116 ft 311 kts 181°
2026-05-07 13:56 45.85622 5.32541 10777 ft 303 kts 181°
2026-05-07 13:56 45.83537 5.32510 10445 ft 296 kts 181°
2026-05-07 13:57 45.81508 5.32479 10127 ft 290 kts 181°
2026-05-07 13:57 45.79534 5.32450 9813 ft 284 kts 181°
2026-05-07 13:57 45.77571 5.32421 9502 ft 281 kts 181°
2026-05-07 13:57 45.75618 5.32392 9200 ft 280 kts 180°
2026-05-07 13:58 45.73669 5.32362 8888 ft 280 kts 180°
2026-05-07 13:58 45.71737 5.32334 8567 ft 272 kts 180°
2026-05-07 13:58 45.69863 5.32306 8274 ft 264 kts 180°
2026-05-07 13:58 45.68051 5.32279 7986 ft 258 kts 180°
2026-05-07 13:59 45.66278 5.32253 7702 ft 252 kts 180°
2026-05-07 13:59 45.64564 5.32133 7409 ft 246 kts 194°
2026-05-07 13:59 45.63088 5.31009 7151 ft 240 kts 215°
2026-05-07 13:59 45.61742 5.29617 6863 ft 236 kts 216°
2026-05-07 14:00 45.60425 5.28238 6597 ft 234 kts 216°
2026-05-07 14:00 45.59108 5.26851 6342 ft 235 kts 216°
2026-05-07 14:00 45.57804 5.25474 6091 ft 236 kts 216°
2026-05-07 14:00 45.56472 5.24066 5824 ft 236 kts 216°
2026-05-07 14:01 45.55157 5.22676 5561 ft 236 kts 216°
2026-05-07 14:01 45.53933 5.21179 5294 ft 235 kts 237°
2026-05-07 14:01 45.53442 5.19006 5094 ft 233 kts 264°
2026-05-07 14:01 45.53283 5.16690 4817 ft 233 kts 265°
2026-05-07 14:02 45.53192 5.14405 4570 ft 227 kts 280°
2026-05-07 14:02 45.53875 5.12544 4373 ft 210 kts 322°
2026-05-07 14:02 45.55193 5.11756 3987 ft 205 kts 350°
2026-05-07 14:02 45.56572 5.11432 3657 ft 195 kts 350°
2026-05-07 14:03 45.57846 5.11141 3397 ft 176 kts 354°
2026-05-07 14:03 45.59003 5.10957 3216 ft 154 kts 355°
2026-05-07 14:03 45.60034 5.10818 2997 ft 147 kts 356°
2026-05-07 14:03 45.61055 5.10689 2803 ft 147 kts 356°
2026-05-07 14:04 45.62034 5.10569 2584 ft 134 kts 354°
2026-05-07 14:04 45.62940 5.10461 2410 ft 131 kts 356°
2026-05-07 14:04 45.63851 5.10351 2259 ft 133 kts 354°
2026-05-07 14:04 45.64777 5.10238 2089 ft 135 kts 358°
2026-05-07 14:05 45.65716 5.10125 1904 ft 137 kts 354°
2026-05-07 14:05 45.66655 5.10032 1728 ft 135 kts 354°
2026-05-07 14:05 45.67603 5.09875 1540 ft 136 kts 354°
2026-05-07 14:05 45.68524 5.09772 1352 ft 134 kts 357°
2026-05-07 14:06 45.69451 5.09668 1159 ft 132 kts 354°
2026-05-07 14:06 45.70366 5.09554 1014 ft 130 kts 356°
2026-05-07 14:06 45.71254 5.09451 855 ft 127 kts 355°
2026-05-07 14:06 45.72071 5.09358 830 ft 99 kts 354°
2026-05-07 14:07 45.72616 5.09294 829 ft 52 kts 354°
2026-05-07 14:07 45.72868 5.09180 829 ft 32 kts 328°
2026-05-07 14:07 45.72968 5.09075 829 ft 13 kts 313°
2026-05-07 14:07 45.72979 5.08950 829 ft 13 kts 265°
2026-05-07 14:08 45.72972 5.08816 829 ft 13 kts 264°
2026-05-07 14:08 45.72963 5.08680 829 ft 13 kts 265°
2026-05-07 14:08 45.72955 5.08542 829 ft 14 kts 265°
2026-05-07 14:08 45.72936 5.08406 829 ft 14 kts 253°
2026-05-07 14:09 45.72857 5.08349 829 ft 13 kts 182°
2026-05-07 14:09 45.72763 5.08359 829 ft 13 kts 174°
2026-05-07 14:09 45.72648 5.08373 829 ft 20 kts 175°
2026-05-07 14:09 45.72490 5.08393 829 ft 23 kts 173°
2026-05-07 14:10 45.72329 5.08412 829 ft 23 kts 175°
2026-05-07 14:10 45.72168 5.08432 829 ft 23 kts 175°
2026-05-07 14:10 45.72004 5.08452 829 ft 23 kts 175°
2026-05-07 14:10 45.71840 5.08472 829 ft 23 kts 175°
2026-05-07 14:11 45.71672 5.08492 829 ft 24 kts 175°
2026-05-07 14:11 45.71529 5.08510 829 ft 14 kts 175°
2026-05-07 14:11 45.71435 5.08495 829 ft 13 kts 227°
2026-05-07 14:11 45.71417 5.08363 829 ft 14 kts 265°
2026-05-07 14:12 45.71428 5.08226 829 ft 14 kts 284°
2026-05-07 14:12 45.71453 5.08087 829 ft 14 kts 284°
2026-05-07 14:12 45.71449 5.07948 829 ft 14 kts 255°
2026-05-07 14:12 45.71473 5.07814 829 ft 14 kts 301°
2026-05-07 14:13 45.71496 5.07726 829 ft 3 kts 306°
2026-05-07 14:13 45.71523 5.07720 829 ft 4 kts
2026-05-07 14:13 45.71550 5.07729 829 ft 1 kts 14°
2026-05-07 14:13 45.71553 5.07730 829 ft 0 kts 14°